Location: downtown San Diego
(32.7310°N, 117.1990°W)
Time: 08:54:34
(UTC-07:00)

Daily predictions for brighter satellites

Satellite Brightness Start Highest point End
(mag) Time Altitude Azimuth Time Altitude Azimuth Time Altitude Azimuth
Lacrosse 5 4.0 20:22:36 10° N 20:25:39 16° NE 20:28:41 10° ENE
Cosmos 1818 4.3 20:23:42 10° NNW 20:28:48 40° ENE 20:33:52 10° SE
YAOGAN 6 4.4 20:27:24 10° ESE 20:29:47 17° ENE 20:32:11 10° NNE
H-2A R/B 4.2 20:29:25 10° SSW 20:32:56 38° W 20:36:33 10° NNW
Atlas Centaur 2 1.8 20:29:29 10° W 20:33:20 42° SSW 20:36:46 10° ESE
Cosmos 2333 Rocket 3.6 20:29:29 10° NW 20:34:40 39° WSW 20:39:50 10° S
Cosmos 2221 3.3 20:34:00 10° NNE 20:38:00 34° E 20:41:59 10° SE
Cosmos 1605 Rocket 4.1 20:32:12 10° N 20:38:31 85° E 20:44:53 10° S
Envisat 3.1 20:35:16 10° SSE 20:40:14 59° ENE 20:45:14 10° N
Cosmos 2227 4.5 20:35:08 10° S 20:40:35 47° ESE 20:46:02 10° NNE
Meteor 1-29 3.7 20:39:13 10° NNE 20:42:22 34° E 20:45:33 10° SSE
Tiangong 1 3.9 20:44:04 10° NNW 20:44:54 11° N 20:45:42 10° NNE
Abrixas 2.0 20:45:49 10° SW 20:48:29 66° SE 20:51:09 10° NE
Milstar 3 Cent rocket 3.4 20:44:24 10° W 20:50:14 52° S 21:00:26 12° ESE
Meteor 2-1 Rocket 4.3 20:49:28 10° N 20:55:16 87° W 21:00:54 10° S
ATLAS 5 CENTAUR R/B 4.0 20:51:26 10° WSW 20:55:29 30° NW 20:59:49 10° N
Cosmos 2263 Rocket 3.5 20:52:37 12° SE 20:55:50 19° E 20:59:37 10° ENE
Cosmos 1727 Rocket 4.4 20:49:47 10° SSW 20:56:02 68° W 21:02:23 10° N
Helios 1B rocket 2.4 20:54:15 10° NNE 20:58:24 83° ESE 21:02:31 10° S
ATLAS 2A CENTAUR R/B 4.4 20:50:42 10° W 20:58:25 64° S 21:31:09 10° ESE
Cosmos 2208 Rocket 4.2 20:56:09 10° N 21:01:27 61° ENE 21:05:58 15° SSE
Cosmos 1802 Rocket 4.5 20:57:17 10° N 21:03:01 40° E 21:07:37 15° SE
Okean 3 Rocket 3.8 20:59:40 10° S 21:04:09 77° W 21:08:38 10° N
SAR-Lupe-4 3.9 21:02:33 17° SE 21:05:03 48° ENE 21:08:30 10° N
Spot 1 3.9 21:03:43 14° SSE 21:07:13 70° ENE 21:11:25 10° N
Cosmos 1766 Rocket 3.7 21:05:02 10° S 21:09:13 52° E 21:13:26 10° NNE
Cosmos 1570 Rocket 4.0 21:05:11 10° NNW 21:10:30 83° ENE 21:14:53 15° SSE
Helios 1A 2.9 21:07:51 12° SSE 21:11:43 86° W 21:15:53 10° NNW
CZ-4B DEB 2.5 21:11:01 22° SSE 21:12:44 71° ENE 21:15:41 10° N
SL-14 R/B 4.4 21:11:31 21° ESE 21:12:46 25° E 21:16:02 10° NE
Cosmos 1356 Rocket 3.7 21:11:57 10° SSW 21:16:11 74° W 21:20:28 10° N
Cosmos 1242 Rocket 2.5 21:14:31 10° N 21:18:13 75° E 21:20:28 22° SSE
Cosmos 1674 3.1 21:14:40 10° SSW 21:18:23 62° W 21:22:07 10° N
Meteor 1-21 Rocket 4.3 21:15:09 10° S 21:20:51 82° W 21:26:28 10° N
Delta 2 Rocket 4.1 21:16:45 10° WSW 21:22:22 85° NNW 21:28:12 10° ENE
Cosmos 2016 Rocket 4.2 21:17:51 10° N 21:23:53 51° E 21:27:43 22° SSE
Cosmos 2237 Rocket 4.4 21:20:10 10° NW 21:24:08 20° W 21:28:08 10° SW
SAR-Lupe-1 4.0 21:22:42 25° SSE 21:24:40 78° ENE 21:28:16 10° N
ERS-1 Rocket 3.1 21:21:50 22° SE 21:24:58 57° ENE 21:29:54 10° N
Cosmos 1743 Rocket 4.3 21:23:38 26° SE 21:25:00 32° E 21:28:52 10° NNE
USA 234 3.4 21:19:04 10° NE 21:25:21 49° SE 21:31:37 10° SSW
Cosmos 1328 4.4 21:25:06 29° SE 21:26:24 37° E 21:30:08 10° NNE
Cosmos 468 Rocket 4.3 21:23:25 10° N 21:28:24 49° ENE 21:30:52 27° SE
RESURS DK-1 2.9 21:25:06 10° N 21:29:04 42° ENE 21:30:33 30° ESE
ARGOS 3.8 21:28:10 24° ESE 21:30:46 39° ENE 21:35:47 10° N
Cosmos 1603 3.9 21:29:16 10° NNW 21:34:49 57° ENE 21:37:34 29° SE
Cosmos 1939 Rocket 4.3 21:34:03 10° SSW 21:37:42 34° W 21:41:24 10° NNW
Cosmos 220 Rocket 4.0 21:33:37 10° SSW 21:38:02 89° WNW 21:42:27 10° NNE
Resurs 01 Rocket 4.4 21:37:01 10° WSW 21:38:52 12° W 21:40:45 10° WNW
Sakura Rocket 4.4 21:30:50 10° W 21:39:44 64° S 21:43:39 27° ESE
Cosmos 1908 4.1 21:36:54 10° NNW 21:40:37 47° W 21:43:08 18° SSW
Cosmos 2228 Rocket 3.7 21:39:27 10° N 21:43:47 41° E 21:44:46 36° ESE
Cosmos 371 Rocket 3.7 21:40:03 10° N 21:44:40 45° ENE 21:46:04 35° ESE
Cosmos 1943 4.1 21:42:29 10° N 21:47:37 34° ENE 21:49:30 28° E
Meteor 2-2 Rocket 4.4 21:42:33 10° N 21:48:20 64° E 21:51:00 33° SSE
GPS 2-05 Rocket1 3.2 21:46:42 10° W 21:49:44 53° N 21:50:27 41° NE
SL-16 R/B 3.7 21:46:06 10° NW 21:50:59 31° WSW 21:55:35 11° SSW
ERBS 3.5 21:48:30 10° NNW 21:51:33 31° NE 21:51:46 31° NE
H-2A R/B 2.5 21:58:02 38° ESE 21:59:28 47° ENE 22:04:39 10° N
Abrixas rocket 3.8 21:59:37 10° NNW 22:02:27 27° NNE 22:02:33 27° NE
Cosmos 2151 3.0 22:04:24 59° ESE 22:04:37 60° E 22:08:51 10° NNE
SPOT 5 2.8 22:03:27 48° SSE 22:04:48 77° ENE 22:09:53 10° N
SL-08 RB Rocket 3.7 22:03:59 54° SE 22:04:51 69° ENE 22:09:26 10° N
Lacrosse 5 1.8 22:04:07 10° NW 22:09:12 86° SW 22:10:17 56° SSE
Cosmos 1626 3.1 22:12:41 36° NE 22:12:41 36° NE 22:15:13 10° NNE
Cosmos 1356 3.9 22:12:37 57° NNE 22:12:37 57° NNE 22:15:28 10° N
Cosmos 1703 3.9 22:14:37 43° NE 22:14:37 43° NE 22:17:41 10° NNE
Landsat 7 4.3 22:14:00 42° E 22:14:17 43° ENE 22:18:46 10° N
Cosmos 2123 Rocket 4.4 22:10:36 16° SSW 22:15:30 61° W 22:21:38 10° N
Meteor 2-10 4.2 22:09:58 10° N 22:15:39 85° W 22:17:34 44° S
Cosmos 1726 3.2 22:16:11 10° NNW 22:19:35 37° W 22:20:02 35° WSW
Tiangong 1 3.5 22:19:09 10° NNW 22:20:43 17° N 22:20:43 17° N
Cosmos 1354 Rocket 3.9 22:25:51 52° SSW 22:27:12 88° WNW 22:32:27 10° NNE
Cosmos 1500 Rocket 4.1 22:27:47 43° SW 22:28:49 54° W 22:33:11 10° N
Terra 2.4 22:29:26 42° ENE 22:29:26 42° ENE 22:33:42 10° N
Cosmos 1814 Rocket 4.4 22:25:43 10° NNW 22:30:55 57° WSW 22:32:03 47° SSW
Cosmos 1763 Rocket 3.5 22:30:59 10° NNW 22:36:01 66° WSW 22:36:32 61° SW
Cosmos 1300 4.1 22:32:47 10° NNW 22:36:11 31° W 22:36:21 31° W
Cosmos 841 Rocket 3.3 22:31:10 10° NNW 22:36:25 87° WSW 22:36:47 77° S
IGS 5A 4.4 22:39:22 40° NE 22:39:22 40° NE 22:42:25 10° N
Cosmos 2263 Rocket 3.1 22:34:09 11° SW 22:39:19 44° WNW 22:44:39 10° N
CARTOSAT-1 4.2 22:40:30 47° NE 22:40:30 47° NE 22:43:56 10° N
Cosmos 304 Rocket 4.3 22:36:13 10° N 22:40:25 49° NE 22:40:25 49° NE
Cosmos 2285 Rocket 4.2 22:35:32 10° N 22:41:47 56° ENE 22:42:35 53° E
OAO 1 Rocket 4.3 22:36:30 10° WNW 22:41:53 85° N 22:42:12 79° ENE
Cosmos 1151 Rocket 3.9 22:49:22 10° NNW 22:53:14 46° WNW 22:53:14 46° WNW
SPOT 1/Viking Rocket 4.2 22:54:21 43° WSW 22:54:52 45° W 22:59:47 10° NNW
Meteor 1-27 4.5 22:49:18 10° NNW 22:55:00 62° W 22:55:46 56° SW
H-2A R/B 3.0 23:01:49 44° N 23:01:49 44° N 23:04:47 10° N
Cosmos 1072 Rocket 4.5 22:58:55 10° N 23:05:16 70° E 23:05:26 69° E
Delta 2 Rocket 4.4 22:59:48 10° W 23:05:33 65° N 23:06:28 56° NE
USA 234 4.4 23:02:11 10° NNE 23:08:12 41° NW 23:14:13 10° WSW
Cosmos 1455 4.0 23:05:13 10° NNW 23:07:20 31° NNW 23:07:20 31° NNW
Cosmos 1464 Rocket 4.0 23:02:58 10° N 23:09:02 67° ENE 23:09:02 67° ENE
Cosmos 1844 Rocket 3.2 23:13:19 47° NE 23:13:19 47° NE 23:17:23 10° NNE
CZ-4C R/B 2.3 23:16:27 65° NW 23:16:27 65° NW 23:21:59 10° NNE
Cosmos 540 Rocket 4.2 23:24:08 10° NNW 23:28:08 48° WNW 23:28:08 48° WNW
CZ-4B R/B 4.0 23:25:08 10° N 23:29:37 59° NNW 23:29:37 59° NNW
Cosmos 968 Rocket 4.1 23:32:30 55° NNW 23:32:30 55° NNW 23:36:44 10° N
H-2A R/B 4.2 23:38:39 17° W 23:39:04 17° W 23:42:33 10° NW
Tsikada Rocket 4.1 23:41:15 75° NNE 23:41:15 75° NNE 23:47:03 10° N
CZ-2C R/B 3.8 23:42:06 10° NNE 23:45:10 33° NE 23:45:10 33° NE
